• In Netherlands
  • List of Countries
  • For 7 days
  • Water Temperature
  • Satellite Maps
  • Weather Map
  • Weather Widgets
  • user-avatar
    Login

    Hourly Weather Ordino

    Today, 1 March, Wednesday

    Time Temperature Precipitation Wind Pressure Humidity
    00:00 -7°C° 0 mm 3 mps 629 mmHg 81%
    01:00 -7°C° 0 mm 3 mps 629 mmHg 78%
    02:00 -6°C° 0 mm 2 mps 629 mmHg 75%
    03:00 -6°C° 0 mm 2 mps 628 mmHg 72%
    04:00 -6°C° 0 mm 2 mps 629 mmHg 70%
    05:00 -6°C° 0 mm 2 mps 629 mmHg 68%
    06:00 -6°C° 0 mm 2 mps 629 mmHg 63%
    07:00 -1°C° 0 mm 1 mps 630 mmHg 60%
    08:00 +1°C° 0 mm 1 mps 631 mmHg 58%
    09:00 +4°C° 0 mm 1 mps 633 mmHg 55%
    10:00 +5°C° 0 mm 1 mps 633 mmHg 54%
    11:00 +7°C° 0 mm 1 mps 634 mmHg 53%
    12:00 +8°C° 0 mm 1 mps 634 mmHg 53%
    13:00 +8°C° 0 mm 1 mps 634 mmHg 54%
    14:00 +7°C° 0 mm 2 mps 633 mmHg 56%
    15:00 +7°C° 0 mm 2 mps 633 mmHg 58%
    16:00 +5°C° 0 mm 2 mps 632 mmHg 67%
    17:00 +3°C° 0 mm 1 mps 631 mmHg 75%
    18:00 +1°C° 0 mm 1 mps 630 mmHg 84%
    19:00 0°C° 0 mm 1 mps 630 mmHg 86%
    20:00 0°C° 0 mm 1 mps 631 mmHg 87%
    21:00 -2°C° 0 mm 0 mps 631 mmHg 88%
    22:00 -1°C° 0 mm 1 mps 631 mmHg 88%
    23:00 -1°C° 0 mm 1 mps 631 mmHg 88%

    Tomorrow, 2 March, Thursday

    Time Temperature Precipitation Wind Pressure Humidity
    00:00 -1°C° 0 mm 1 mps 631 mmHg 88%
    01:00 -1°C° 0 mm 1 mps 631 mmHg 88%
    02:00 -1°C° 0 mm 1 mps 630 mmHg 87%
    03:00 -1°C° 0 mm 1 mps 630 mmHg 87%
    04:00 -1°C° 0 mm 1 mps 630 mmHg 87%
    05:00 -1°C° 0 mm 1 mps 630 mmHg 87%
    06:00 -1°C° 0 mm 1 mps 630 mmHg 87%
    07:00 +2°C° 0 mm 1 mps 631 mmHg 79%
    08:00 +3°C° 0 mm 0 mps 633 mmHg 72%
    09:00 +6°C° 0 mm 0 mps 634 mmHg 64%
    10:00 +8°C° 0 mm 1 mps 634 mmHg 62%
    11:00 +9°C° 0 mm 1 mps 635 mmHg 59%
    12:00 +10°C° 0 mm 1 mps 635 mmHg 56%
    13:00 +9°C° 0 mm 2 mps 634 mmHg 58%
    14:00 +9°C° 0 mm 2 mps 634 mmHg 59%
    15:00 +9°C° 0 mm 2 mps 633 mmHg 61%
    16:00 +7°C° 0 mm 2 mps 633 mmHg 70%
    17:00 +4°C° 0 mm 2 mps 632 mmHg 79%
    18:00 +2°C° 0 mm 2 mps 631 mmHg 88%
    19:00 +2°C° 0 mm 2 mps 630 mmHg 88%
    20:00 +1°C° 0 mm 2 mps 630 mmHg 87%
    21:00 +2°C° 0 mm 1 mps 630 mmHg 87%
    22:00 -1°C° 0 mm 2 mps 630 mmHg 87%
    23:00 -1°C° 0 mm 2 mps 629 mmHg 87%

    Day after tomorrow, 3 March, Friday

    Time Temperature Precipitation Wind Pressure Humidity
    00:00 -1°C° 0 mm 2 mps 629 mmHg 87%
    01:00 -1°C° 0 mm 2 mps 629 mmHg 87%
    02:00 -1°C° 0 mm 2 mps 628 mmHg 86%
    03:00 -1°C° 0 mm 2 mps 628 mmHg 85%
    04:00 -1°C° 0 mm 2 mps 627 mmHg 85%
    05:00 -1°C° 0 mm 2 mps 627 mmHg 84%
    06:00 -1°C° 0 mm 2 mps 626 mmHg 84%
    07:00 +2°C° 0 mm 2 mps 627 mmHg 78%
    08:00 +3°C° 0 mm 3 mps 627 mmHg 73%
    09:00 +5°C° 0 mm 3 mps 627 mmHg 68%
    10:00 +7°C° 0 mm 3 mps 627 mmHg 66%
    11:00 +7°C° 0 mm 4 mps 627 mmHg 64%
    12:00 +8°C° 0 mm 4 mps 627 mmHg 62%
    13:00 +7°C° 0.1 mm 4 mps 626 mmHg 65%
    14:00 +7°C° 0.1 mm 4 mps 624 mmHg 68%
    15:00 +6°C° 0.1 mm 4 mps 623 mmHg 70%
    16:00 +5°C° 0.6 mm 4 mps 623 mmHg 75%
    17:00 +3°C° 0.6 mm 4 mps 622 mmHg 80%
    18:00 +2°C° 0.6 mm 3 mps 621 mmHg 85%
    19:00 +1°C° 1.9 mm 3 mps 622 mmHg 88%
    20:00 0°C° 1.9 mm 4 mps 622 mmHg 90%
    21:00 -1°C° 1.9 mm 4 mps 622 mmHg 93%
    22:00 0°C° 0.9 mm 3 mps 622 mmHg 94%
    23:00 -1°C° 0.9 mm 2 mps 622 mmHg 94%

    4 March, Saturday

    Time Temperature Precipitation Wind Pressure Humidity
    00:00 -2°C° 0.9 mm 2 mps 622 mmHg 95%
    01:00 -1°C° 0 mm 1 mps 622 mmHg 95%
    02:00 -2°C° 0 mm 1 mps 621 mmHg 96%
    03:00 -3°C° 0 mm 1 mps 621 mmHg 96%
    04:00 -3°C° 0 mm 1 mps 621 mmHg 95%
    05:00 -2°C° 0 mm 1 mps 621 mmHg 94%
    06:00 -2°C° 0 mm 1 mps 621 mmHg 93%
    07:00 -3°C° 0 mm 2 mps 622 mmHg 88%
    08:00 -2°C° 0 mm 2 mps 622 mmHg 84%
    09:00 -1°C° 0 mm 3 mps 622 mmHg 79%
    10:00 0°C° 0 mm 3 mps 622 mmHg 75%
    11:00 +1°C° 0 mm 3 mps 622 mmHg 71%
    12:00 +2°C° 0 mm 3 mps 622 mmHg 68%
    13:00 +1°C° 0.1 mm 3 mps 622 mmHg 70%
    14:00 +2°C° 0.1 mm 2 mps 621 mmHg 72%
    15:00 +2°C° 0.1 mm 2 mps 621 mmHg 74%
    16:00 +1°C° 0.2 mm 2 mps 621 mmHg 79%
    17:00 +1°C° 0.2 mm 1 mps 621 mmHg 85%
    18:00 0°C° 0.2 mm 1 mps 620 mmHg 90%
    19:00 -2°C° 0.4 mm 2 mps 621 mmHg 91%
    20:00 -2°C° 0.4 mm 2 mps 622 mmHg 91%
    21:00 -2°C° 0.4 mm 2 mps 623 mmHg 91%
    22:00 -3°C° 0.1 mm 2 mps 623 mmHg 91%
    23:00 -3°C° 0.1 mm 2 mps 624 mmHg 90%

    5 March, Sunday

    Time Temperature Precipitation Wind Pressure Humidity
    00:00 -5°C° 0.1 mm 3 mps 624 mmHg 90%
    01:00 -4°C° 0 mm 2 mps 624 mmHg 89%
    02:00 -5°C° 0 mm 2 mps 624 mmHg 88%
    03:00 -5°C° 0 mm 2 mps 624 mmHg 88%
    04:00 -5°C° 0 mm 2 mps 624 mmHg 86%
    05:00 -6°C° 0 mm 2 mps 624 mmHg 85%
    06:00 -4°C° 0 mm 1 mps 624 mmHg 84%
    07:00 -2°C° 0 mm 1 mps 624 mmHg 79%
    08:00 +1°C° 0 mm 1 mps 625 mmHg 74%
    09:00 +3°C° 0 mm 1 mps 626 mmHg 69%
    10:00 +3°C° 0 mm 2 mps 626 mmHg 68%
    11:00 +3°C° 0 mm 2 mps 626 mmHg 68%
    12:00 +3°C° 0 mm 3 mps 626 mmHg 67%
    13:00 +4°C° 0.1 mm 3 mps 625 mmHg 69%
    14:00 +4°C° 0.1 mm 3 mps 625 mmHg 71%
    15:00 +4°C° 0.1 mm 4 mps 625 mmHg 73%
    16:00 +2°C° 0.7 mm 3 mps 625 mmHg 79%
    17:00 +1°C° 0.7 mm 3 mps 625 mmHg 85%
    18:00 0°C° 0.7 mm 3 mps 625 mmHg 91%
    19:00 -1°C° 0.2 mm 3 mps 625 mmHg 91%
    20:00 -2°C° 0.2 mm 3 mps 625 mmHg 90%
    21:00 -4°C° 0.2 mm 3 mps 625 mmHg 90%
    22:00 -4°C° 0.4 mm 3 mps 626 mmHg 90%
    23:00 -4°C° 0.4 mm 3 mps 626 mmHg 90%

    6 March, Monday

    Time Temperature Precipitation Wind Pressure Humidity
    00:00 -4°C° 0.4 mm 3 mps 626 mmHg 91%
    01:00 -4°C° 0.5 mm 3 mps 626 mmHg 91%
    02:00 -4°C° 0.5 mm 3 mps 626 mmHg 91%
    03:00 -4°C° 0.5 mm 3 mps 626 mmHg 92%
    04:00 -5°C° 0.2 mm 3 mps 626 mmHg 92%
    05:00 -5°C° 0.2 mm 3 mps 626 mmHg 92%
    06:00 -5°C° 0.2 mm 3 mps 626 mmHg 92%
    07:00 -4°C° 0.1 mm 4 mps 627 mmHg 89%
    08:00 -3°C° 0.1 mm 4 mps 627 mmHg 85%
    09:00 -1°C° 0.1 mm 5 mps 628 mmHg 82%
    10:00 -1°C° 0.4 mm 5 mps 628 mmHg 81%
    11:00 0°C° 0.4 mm 5 mps 628 mmHg 79%
    12:00 0°C° 0.4 mm 5 mps 629 mmHg 78%
    13:00 0°C° 0.7 mm 4 mps 628 mmHg 79%
    14:00 0°C° 0.7 mm 4 mps 628 mmHg 79%
    15:00 0°C° 0.7 mm 4 mps 628 mmHg 80%
    16:00 -1°C° 0.9 mm 4 mps 628 mmHg 83%
    17:00 -1°C° 0.9 mm 4 mps 628 mmHg 87%
    18:00 -2°C° 0.9 mm 5 mps 628 mmHg 90%
    19:00 -2°C° 0.7 mm 5 mps 629 mmHg 89%
    20:00 -4°C° 0.7 mm 5 mps 629 mmHg 89%
    21:00 -4°C° 0.7 mm 5 mps 630 mmHg 89%
    22:00 -4°C° 0.3 mm 5 mps 631 mmHg 89%
    23:00 -4°C° 0.3 mm 5 mps 631 mmHg 89%
    Show more